Change the Weather History Date:

Thursday, June 13, 2013

  Actual Average Record
Temperature  
Mean Temperature 55 °F -  
Max Temperature 61 °F 63 °F 82 °F (2002)
Min Temperature 50 °F 48 °F 37 °F (1976)
Degree Days  
Heating Degree Days 10    
Growing Degree Days 5 (Base 50)    
Moisture  
Dew Point 49 °F    
Average Humidity 81    
Maximum Humidity 93    
Minimum Humidity 67    
Precipitation  
Precipitation 0.00 in - - ()
Sea Level Pressure  
Sea Level Pressure 30.19 in    
Wind  
Wind Speed 8 mph (WNW)    
Max Wind Speed 21 mph    
Max Gust Speed 31 mph    
Visibility 10 miles    
Events      
Averages and records for this station are not official NWS values.
T = Trace of Precipitation, MM = Missing Value Source: NWS Daily Summary

Daily Weather History Graph

Daily Weather History Graph

Search for Another Location

Airport or City:

Trip Planner

Search our weather history database for the weather conditions in past years. The results will help you decide how hot, cold, wet, or windy it might be!

Date:

Astronomy

Jun. 13, 2013 Rise Set
Actual Time 5:13 AM PDT 9:15 PM PDT
Civil Twilight 4:32 AM PDT 9:56 PM PDT
Nautical Twilight 3:34 AM PDT 10:54 PM PDT
Astronomical Twilight 1:57 AM PDT 12:32 AM PDT
Moon 10:14 AM PDT (6/13) No Moon Set
Length of Visible Light 17h 24m
Length of Day
16h 01m
Waxing Crescent, 22% of the Moon is Illuminated
Jun 13
Waxing Crescent
Jun 16
First Quarter
Jun 23
Full
Jun 29
Last Quarter
Jul 8
New

Hourly Weather History & Observations

Time (PDT) Temp. Dew Point Humidity Pressure Visibility Wind Dir Wind Speed Gust Speed Precip Events Conditions
12:53 AM 51.1 °F 48.0 °F 89% 30.15 in 10.0 mi WSW 4.6 mph - N/A   Overcast
1:53 AM 52.0 °F 48.0 °F 86% 30.15 in 10.0 mi WSW 5.8 mph - N/A   Overcast
2:53 AM 51.1 °F 48.0 °F 89% 30.16 in 10.0 mi West 4.6 mph - N/A   Overcast
3:53 AM 51.1 °F 48.0 °F 89% 30.16 in 10.0 mi WSW 4.6 mph - N/A   Overcast
4:53 AM 50.0 °F 48.0 °F 93% 30.16 in 10.0 mi WNW 3.5 mph - N/A   Overcast
5:53 AM 51.1 °F 48.0 °F 89% 30.17 in 10.0 mi West 5.8 mph - 0.00 in   Overcast
6:53 AM 52.0 °F 48.9 °F 89% 30.17 in 10.0 mi West 5.8 mph - N/A   Overcast
7:53 AM 52.0 °F 48.9 °F 89% 30.18 in 10.0 mi NW 6.9 mph - N/A   Overcast
8:21 AM 53.1 °F 48.9 °F 86% 30.18 in 10.0 mi WNW 4.6 mph - N/A   Mostly Cloudy
8:53 AM 54.0 °F 48.9 °F 83% 30.18 in 10.0 mi NNW 8.1 mph - N/A   Partly Cloudy
9:50 AM 53.6 °F 48.2 °F 82% 30.19 in 10.0 mi WNW 10.4 mph - N/A   Mostly Cloudy
9:53 AM 55.0 °F 48.9 °F 80% 30.19 in 10.0 mi WNW 10.4 mph - N/A   Mostly Cloudy
10:09 AM 55.0 °F 48.9 °F 80% 30.19 in 10.0 mi NNW 8.1 mph - N/A   Scattered Clouds
10:53 AM 57.0 °F 50.0 °F 77% 30.19 in 10.0 mi North 9.2 mph - N/A   Clear
11:53 AM 57.9 °F 51.1 °F 78% 30.20 in 10.0 mi NW 9.2 mph - N/A   Clear
12:53 PM 59.0 °F 51.1 °F 75% 30.20 in 10.0 mi NW 10.4 mph - N/A   Clear
1:53 PM 59.0 °F 50.0 °F 72% 30.20 in 10.0 mi WNW 12.7 mph - N/A   Clear
2:53 PM 60.1 °F 48.9 °F 67% 30.20 in 10.0 mi NW 17.3 mph 21.9 mph N/A   Clear
3:53 PM 59.0 °F 50.0 °F 72% 30.20 in 10.0 mi NW 12.7 mph 25.3 mph 0.00 in   Clear
4:53 PM 57.9 °F 50.0 °F 75% 30.21 in 10.0 mi WNW 17.3 mph 31.1 mph N/A   Clear
5:13 PM 55.9 °F 48.9 °F 77% 30.20 in 10.0 mi NW 16.1 mph 26.5 mph N/A   Mostly Cloudy
5:36 PM 57.0 °F 48.9 °F 74% 30.21 in 10.0 mi NW 16.1 mph 26.5 mph N/A   Scattered Clouds
5:53 PM 57.0 °F 48.0 °F 72% 30.21 in 10.0 mi NW 20.7 mph 26.5 mph N/A   Partly Cloudy
6:53 PM 55.0 °F 46.9 °F 74% 30.22 in 10.0 mi WNW 18.4 mph 29.9 mph N/A   Clear
7:53 PM 55.0 °F 46.9 °F 74% 30.22 in 10.0 mi NW 13.8 mph 23.0 mph N/A   Clear
8:53 PM 52.0 °F 46.9 °F 83% 30.22 in 10.0 mi West 10.4 mph - N/A   Clear
9:53 PM 51.1 °F 46.9 °F 86% 30.23 in 10.0 mi West 10.4 mph - N/A   Overcast
10:53 PM 51.1 °F 46.9 °F 86% 30.24 in 10.0 mi West 11.5 mph - N/A   Clear
11:53 PM 51.1 °F 46.0 °F 83% 30.23 in 10.0 mi WNW 8.1 mph - N/A   Partly Cloudy